Tracking 20241 objects as of 27-Jan-2020
HD Live streaming from Space Station
objects crossing your sky now

FENGYUN 1C DEB

Track FENGYUN 1C DEB now!
10-day predictions


NORAD ID: 31349
Int'l Code: 1999-025BRD
Perigee: 850.9 km
Apogee: 957.4 km
Inclination: 99.2 °
Period: 102.9 minutes
Semi major axis: 7275 km
RCS: 0.0157 m2 (small)
Launch date: May 10, 1999
Source: People's Republic of China (PRC)
Launch site: Taiyaun Space Center, China (TSC)

Note: This is SATELLITE DEBRIS
aabbcc
Your satellite tracking list
Your tracking list is empty




NASA's NSSDC Master Catalog

Two Line Element Set (TLE):
1 31349U 99025BRD 20027.14133951 -.00000367  00000-0 -21726-3 0  9992
2 31349  99.2181 353.3529 0073174   7.6090 352.6166 13.99076169649083
Source of the keplerian elements: AFSPC